Flag for Trinidad and Tobago Weather past 2 weeks in Port of Spain, Trinidad and Tobago

Now
77 °F

Passing clouds.


Feels Like: 79 °F
Forecast: 78 / 85 °F
Wind: 9 mph from East

Location: Piarco International Airport - Trinidad

Current Time: Mar 5, 2015 at 8:00:49 AM

Latest Report: Mar 5, 2015 at 6:00 AM


Visibility: N/A

Pressure: 29.92 "Hg

Humidity: 79%

Dew point: 70 °F

Location of Port of SpainLocation

Historic Weather in Port of Spain — Graph

°F

Port of Spain temperature yesterday

Maximum temperature yesterday: 88 °F (at 1:00 PM)
Minimum temperature yesterday: 73 °F (at 5:00 AM)
Average temperature yesterday: 80 °F

Past Weeks' High & Low Weather Summary

 TemperatureHumidityPressure
High90 °F (Feb 19, 12:00 PM)100% (Feb 26, 11:00 PM)30.04 "Hg (Feb 26, 11:00 PM)
Low68 °F (Feb 19, 6:00 AM)43% (Feb 23, 12:00 PM)29.83 "Hg (Feb 19, 4:00 PM)
Average79 °F75%29.93 "Hg
* Reported Feb 18 6:00 AM — Mar 5 6:00 AM, Port of Spain, Weather by CustomWeather, © 2015

Note: Actual official high and low records may vary slightly from our data, if they occured in-between our weather recording intervals... More about our weather records

Advertising

Port of Spain weather history for previous 24 hours

 ConditionsComfort  
Time TempWeatherWind HumidityBarometerVisibility
6:00 AM
Thu, Mar 5
77 °FPassing clouds.9 mph79%29.92 "HgN/A
5:00 AM75 °FPassing clouds.No wind89%29.89 "HgN/A
4:00 AM75 °FPassing clouds.No wind89%29.89 "HgN/A
3:00 AM77 °FPassing clouds.6 mph83%29.89 "HgN/A
2:00 AM77 °FPassing clouds.8 mph83%29.92 "HgN/A
1:00 AM77 °FPassing clouds.8 mph83%29.92 "HgN/A
12:00 AM77 °FPassing clouds.9 mph83%29.95 "HgN/A
11:00 PM
Wed, Mar 4
75 °FPassing clouds.9 mph94%29.95 "HgN/A
10:00 PM79 °FPassing clouds.9 mph74%29.95 "HgN/A
9:00 PM77 °FPassing clouds.6 mph83%29.95 "HgN/A
8:00 PM79 °FPassing clouds.9 mph74%30.01 "HgN/A
7:00 PM77 °FPassing clouds.9 mph83%29.92 "HgN/A
6:00 PM82 °FScattered clouds.14 mph66%29.89 "HgN/A
5:00 PM84 °FScattered clouds.16 mph62%29.89 "HgN/A
4:00 PM86 °FPassing clouds.17 mph55%29.86 "HgN/A
3:00 PM86 °FScattered clouds.17 mph59%29.89 "HgN/A
2:00 PM88 °FPartly sunny.17 mph59%29.89 "HgN/A
1:00 PM88 °FPartly sunny.17 mph55%29.92 "HgN/A
12:00 PM86 °FPartly sunny.20 mph59%29.95 "HgN/A
11:00 AM84 °FScattered clouds.16 mph66%29.98 "HgN/A
10:00 AM82 °FPassing clouds.15 mph70%29.98 "HgN/A
9:00 AM81 °FPassing clouds.12 mph79%29.95 "HgN/A
8:00 AM79 °FSprinkles. Scattered clouds.13 mph79%29.95 "Hg5 mi
Weather by CustomWeather, © 2015

See weather overviewHow to use our weather pages